Time,TemperatureF,DewpointF,PressureIn,WindDirection,WindDirectionDegrees,WindSpeedMPH,WindSpeedGustMPH,Humidity,HourlyPrecipIn,Conditions,Clouds,dailyrainin,SoftwareType,DateUTC
2013-04-16 00:00:00,53.4,49.3,30.15,NNE,22,3.5,4.0,86,0.00,CLR,,0.00,WeatherDisplay:10.37,2013-04-16 04:00:00,
2013-04-16 00:05:00,53.4,49.3,30.15,NNE,22,0.0,0.0,86,0.00,CLR,,0.00,WeatherDisplay:10.37,2013-04-16 04:05:00,
2013-04-16 00:10:00,53.4,49.3,30.15,NNE,22,6.9,6.9,86,0.00,CLR,,0.00,WeatherDisplay:10.37,2013-04-16 04:10:00,
2013-04-16 00:15:00,53.4,49.3,30.15,NNE,22,1.1,1.8,86,0.00,CLR,,0.00,WeatherDisplay:10.37,2013-04-16 04:15:00,
2013-04-16 00:20:00,53.4,49.3,30.15,NNE,22,3.9,0.0,86,0.00,CLR,,0.00,WeatherDisplay:10.37,2013-04-16 04:20:00,
2013-04-16 00:25:00,53.4,49.3,30.15,NNE,22,1.1,0.0,86,0.00,CLR,,0.00,WeatherDisplay:10.37,2013-04-16 04:25:00,
2013-04-16 00:30:00,53.4,49.3,30.15,NNE,22,2.3,2.5,86,0.00,CLR,,0.00,WeatherDisplay:10.37,2013-04-16 04:30:00,
2013-04-16 00:35:00,53.4,49.3,30.15,NNE,22,3.5,3.5,86,0.00,CLR,,0.00,WeatherDisplay:10.37,2013-04-16 04:35:00,
2013-04-16 00:40:00,53.2,49.2,30.15,NNE,22,2.3,0.0,86,0.00,CLR,,0.00,WeatherDisplay:10.37,2013-04-16 04:40:00,
2013-04-16 00:45:00,53.2,49.2,30.15,NNE,22,0.0,0.0,86,0.00,CLR,,0.00,WeatherDisplay:10.37,2013-04-16 04:45:00,
2013-04-16 00:50:00,53.2,49.5,30.16,NNE,22,2.3,2.3,87,0.00,CLR,,0.00,WeatherDisplay:10.37,2013-04-16 04:50:00,
2013-04-16 00:55:00,53.2,49.5,30.15,NNE,22,0.0,0.0,87,0.00,CLR,,0.00,WeatherDisplay:10.37,2013-04-16 04:55:00,
2013-04-16 01:00:00,53.2,49.2,30.15,NNE,22,0.0,0.0,86,0.00,CLR,,0.00,WeatherDisplay:10.37,2013-04-16 05:00:00,
2013-04-16 01:05:00,53.2,49.2,30.15,NNE,22,0.0,0.0,86,0.00,CLR,,0.00,WeatherDisplay:10.37,2013-04-16 05:05:00,
2013-04-16 01:10:00,53.2,49.2,30.15,NNE,22,0.0,0.0,86,0.00,CLR,,0.00,WeatherDisplay:10.37,2013-04-16 05:10:00,
2013-04-16 01:15:00,53.2,49.5,30.15,NNE,22,2.3,2.3,87,0.00,CLR,,0.00,WeatherDisplay:10.37,2013-04-16 05:15:00,
2013-04-16 01:20:00,53.2,49.5,30.15,NNE,22,0.0,0.0,87,0.00,CLR,,0.00,WeatherDisplay:10.37,2013-04-16 05:20:00,
2013-04-16 01:25:00,53.2,49.2,30.15,NNE,22,0.0,0.0,86,0.00,CLR,,0.00,WeatherDisplay:10.37,2013-04-16 05:25:00,
2013-04-16 01:30:00,53.1,49.0,30.16,NNE,22,0.0,0.0,86,0.00,CLR,,0.00,WeatherDisplay:10.37,2013-04-16 05:30:00,
2013-04-16 01:35:00,52.9,49.1,30.16,NNE,22,0.0,0.0,87,0.00,CLR,,0.00,WeatherDisplay:10.37,2013-04-16 05:35:00,
2013-04-16 01:40:00,52.9,48.8,30.16,NNE,22,1.1,1.1,86,0.00,CLR,,0.00,WeatherDisplay:10.37,2013-04-16 05:40:00,
2013-04-16 01:45:00,52.9,49.1,30.15,NNE,22,2.4,2.4,87,0.00,CLR,,0.00,WeatherDisplay:10.37,2013-04-16 05:45:00,
2013-04-16 01:50:00,52.9,49.1,30.15,NNE,22,5.1,5.1,87,0.00,CLR,,0.00,WeatherDisplay:10.37,2013-04-16 05:50:00,
2013-04-16 01:55:00,52.9,49.1,30.15,NNE,22,0.0,0.0,87,0.00,CLR,,0.00,WeatherDisplay:10.37,2013-04-16 05:55:00,
2013-04-16 02:00:00,52.9,49.1,30.15,NNE,22,0.0,0.0,87,0.00,CLR,,0.00,WeatherDisplay:10.37,2013-04-16 06:00:00,
2013-04-16 02:05:00,52.9,49.1,30.14,NNE,22,0.0,0.0,87,0.00,CLR,,0.00,WeatherDisplay:10.37,2013-04-16 06:05:00,
2013-04-16 02:10:00,52.9,49.1,30.14,NNE,22,3.5,3.5,87,0.00,CLR,,0.00,WeatherDisplay:10.37,2013-04-16 06:10:00,
2013-04-16 02:15:00,52.9,49.1,30.14,NNE,22,4.6,4.6,87,0.00,CLR,,0.00,WeatherDisplay:10.37,2013-04-16 06:15:00,
2013-04-16 02:20:00,52.9,49.1,30.14,NNE,22,1.2,1.2,87,0.00,CLR,,0.00,WeatherDisplay:10.37,2013-04-16 06:20:00,
2013-04-16 02:25:00,52.9,49.4,30.14,NNE,22,0.0,0.0,88,0.00,CLR,,0.00,WeatherDisplay:10.37,2013-04-16 06:25:00,
2013-04-16 02:30:00,52.9,49.1,30.14,NNE,22,0.0,0.0,87,0.00,CLR,,0.00,WeatherDisplay:10.37,2013-04-16 06:30:00,
2013-04-16 02:35:00,52.9,49.1,30.14,NNE,22,0.0,0.0,87,0.00,CLR,,0.00,WeatherDisplay:10.37,2013-04-16 06:35:00,
2013-04-16 02:40:00,52.9,49.4,30.14,NNE,22,0.0,0.0,88,0.00,CLR,,0.00,WeatherDisplay:10.37,2013-04-16 06:40:00,
2013-04-16 02:45:00,52.9,49.4,30.13,NNE,22,3.5,3.8,88,0.00,CLR,,0.00,WeatherDisplay:10.37,2013-04-16 06:45:00,
2013-04-16 02:50:00,53.1,49.6,30.13,NNE,22,0.0,0.0,88,0.00,CLR,,0.00,WeatherDisplay:10.37,2013-04-16 06:50:00,
2013-04-16 02:55:00,53.1,49.6,30.13,NNE,22,0.0,0.0,88,0.00,CLR,,0.00,WeatherDisplay:10.37,2013-04-16 06:55:00,
2013-04-16 03:00:00,53.1,49.6,30.13,NNE,22,3.5,3.5,88,0.00,CLR,,0.00,WeatherDisplay:10.37,2013-04-16 07:00:00,
2013-04-16 03:05:00,53.1,49.6,30.13,NNE,22,2.3,3.2,88,0.00,CLR,,0.00,WeatherDisplay:10.37,2013-04-16 07:05:00,
2013-04-16 03:10:00,53.2,49.8,30.13,NNE,22,5.8,0.0,88,0.00,CLR,,0.00,WeatherDisplay:10.37,2013-04-16 07:10:00,
2013-04-16 03:15:00,53.4,50.0,30.13,NNE,22,3.5,3.5,88,0.00,CLR,,0.00,WeatherDisplay:10.37,2013-04-16 07:15:00,
2013-04-16 03:20:00,53.4,50.0,30.13,NNE,22,4.3,0.0,88,0.00,CLR,,0.00,WeatherDisplay:10.37,2013-04-16 07:20:00,
2013-04-16 03:25:00,53.4,50.0,30.13,NNE,22,4.6,4.6,88,0.00,CLR,,0.00,WeatherDisplay:10.37,2013-04-16 07:25:00,
2013-04-16 03:31:00,53.4,49.6,30.12,NNE,22,2.2,0.0,87,0.00,CLR,,0.00,WeatherDisplay:10.37,2013-04-16 07:31:00,
2013-04-16 03:36:00,53.4,49.6,30.12,NNE,22,0.0,0.0,87,0.00,CLR,,0.00,WeatherDisplay:10.37,2013-04-16 07:36:00,
2013-04-16 03:41:00,53.4,49.6,30.13,NNE,22,1.4,1.5,87,0.00,CLR,,0.00,WeatherDisplay:10.37,2013-04-16 07:41:00,
2013-04-16 03:46:00,53.4,49.6,30.13,NNE,22,4.6,5.0,87,0.00,CLR,,0.00,WeatherDisplay:10.37,2013-04-16 07:46:00,
2013-04-16 03:51:00,53.4,49.6,30.13,NNE,22,1.1,1.1,87,0.00,CLR,,0.00,WeatherDisplay:10.37,2013-04-16 07:51:00,
2013-04-16 03:56:00,53.8,50.0,30.14,NNE,22,2.3,2.5,87,0.00,CLR,,0.00,WeatherDisplay:10.37,2013-04-16 07:56:00,
2013-04-16 04:01:00,53.8,50.0,30.14,NNE,22,2.3,2.3,87,0.00,CLR,,0.00,WeatherDisplay:10.37,2013-04-16 08:01:00,
2013-04-16 04:06:00,53.8,50.0,30.14,NNE,22,2.3,0.0,87,0.00,CLR,,0.00,WeatherDisplay:10.37,2013-04-16 08:06:00,
2013-04-16 04:11:00,53.8,50.0,30.14,NNE,22,4.6,4.6,87,0.00,CLR,,0.00,WeatherDisplay:10.37,2013-04-16 08:11:00,
2013-04-16 04:16:00,54.0,50.2,30.14,NNE,22,3.5,3.5,87,0.00,CLR,,0.00,WeatherDisplay:10.37,2013-04-16 08:16:00,
2013-04-16 04:21:00,54.1,50.4,30.14,NNE,22,0.0,0.0,87,0.00,CLR,,0.00,WeatherDisplay:10.37,2013-04-16 08:21:00,
2013-04-16 04:26:00,54.1,50.4,30.14,NNE,22,2.3,2.3,87,0.00,CLR,,0.00,WeatherDisplay:10.37,2013-04-16 08:26:00,
2013-04-16 04:31:00,54.1,50.4,30.14,NNE,22,0.0,0.0,87,0.00,CLR,,0.00,WeatherDisplay:10.37,2013-04-16 08:31:00,
2013-04-16 04:36:00,54.1,50.4,30.14,NNE,22,4.3,4.3,87,0.00,CLR,,0.00,WeatherDisplay:10.37,2013-04-16 08:36:00,
2013-04-16 04:41:00,54.1,50.4,30.14,NNE,22,5.8,0.0,87,0.00,CLR,,0.00,WeatherDisplay:10.37,2013-04-16 08:41:00,
2013-04-16 04:46:00,54.3,50.5,30.14,NNE,22,0.0,0.1,87,0.00,CLR,,0.00,WeatherDisplay:10.37,2013-04-16 08:46:00,
2013-04-16 04:51:00,54.3,50.5,30.14,NNE,22,8.1,8.1,87,0.00,CLR,,0.00,WeatherDisplay:10.37,2013-04-16 08:51:00,
2013-04-16 04:56:00,54.3,50.5,30.15,NNE,22,3.5,3.5,87,0.00,CLR,,0.00,WeatherDisplay:10.37,2013-04-16 08:56:00,
2013-04-16 05:01:00,54.5,50.7,30.15,NNE,22,3.5,3.5,87,0.00,CLR,,0.00,WeatherDisplay:10.37,2013-04-16 09:01:00,
2013-04-16 05:06:00,54.7,50.9,30.15,NNE,22,5.8,5.8,87,0.00,CLR,,0.00,WeatherDisplay:10.37,2013-04-16 09:06:00,
2013-04-16 05:11:00,54.7,50.9,30.15,NNE,22,2.3,2.8,87,0.00,CLR,,0.00,WeatherDisplay:10.37,2013-04-16 09:11:00,
2013-04-16 05:16:00,54.7,50.9,30.15,NNE,22,0.0,0.0,87,0.00,CLR,,0.00,WeatherDisplay:10.37,2013-04-16 09:16:00,
2013-04-16 05:21:00,54.9,51.1,30.15,NNE,22,2.3,0.0,87,0.00,CLR,,0.00,WeatherDisplay:10.37,2013-04-16 09:21:00,
2013-04-16 05:26:00,54.9,51.1,30.15,NNE,22,0.0,0.0,87,0.00,CLR,,0.00,WeatherDisplay:10.37,2013-04-16 09:26:00,
2013-04-16 05:32:00,54.9,51.1,30.15,NNE,22,5.8,6.0,87,0.00,CLR,,0.00,WeatherDisplay:10.37,2013-04-16 09:32:00,
2013-04-16 05:37:00,55.0,51.2,30.15,NNE,22,0.0,0.0,87,0.00,CLR,,0.00,WeatherDisplay:10.37,2013-04-16 09:37:00,
2013-04-16 05:42:00,55.0,51.2,30.16,NNE,22,1.1,1.1,87,0.00,CLR,,0.00,WeatherDisplay:10.37,2013-04-16 09:42:00,
2013-04-16 05:47:00,55.0,51.2,30.15,NNE,22,0.0,0.0,87,0.00,CLR,,0.00,WeatherDisplay:10.37,2013-04-16 09:47:00,
2013-04-16 05:52:00,55.0,51.2,30.16,NNE,22,5.8,6.2,87,0.00,CLR,,0.00,WeatherDisplay:10.37,2013-04-16 09:52:00,
2013-04-16 05:57:00,55.0,51.2,30.16,NNE,22,0.0,0.0,87,0.00,CLR,,0.00,WeatherDisplay:10.37,2013-04-16 09:57:00,
2013-04-16 06:02:00,55.0,51.2,30.16,NNE,22,6.9,7.0,87,0.00,CLR,,0.00,WeatherDisplay:10.37,2013-04-16 10:02:00,
2013-04-16 06:07:00,55.0,51.2,30.16,NNE,22,2.7,2.7,87,0.00,CLR,,0.00,WeatherDisplay:10.37,2013-04-16 10:07:00,
2013-04-16 06:12:00,55.0,51.2,30.17,NNE,22,0.0,0.0,87,0.00,CLR,,0.00,WeatherDisplay:10.37,2013-04-16 10:12:00,
2013-04-16 06:17:00,54.7,50.6,30.17,NNE,22,1.1,1.1,86,0.00,CLR,,0.00,WeatherDisplay:10.37,2013-04-16 10:17:00,
2013-04-16 06:22:00,54.7,50.9,30.17,NNE,22,0.0,0.0,87,0.00,CLR,,0.00,WeatherDisplay:10.37,2013-04-16 10:22:00,
2013-04-16 06:27:00,54.5,50.7,30.17,NNE,22,1.4,1.4,87,0.00,CLR,,0.00,WeatherDisplay:10.37,2013-04-16 10:27:00,
2013-04-16 06:32:00,54.5,50.7,30.17,NNE,22,1.2,1.3,87,0.00,CLR,,0.00,WeatherDisplay:10.37,2013-04-16 10:32:00,
2013-04-16 06:37:00,54.5,50.7,30.17,NNE,22,1.1,0.0,87,0.00,CLR,,0.00,WeatherDisplay:10.37,2013-04-16 10:37:00,
2013-04-16 06:42:00,54.3,50.5,30.17,NNE,22,0.0,0.0,87,0.00,CLR,,0.00,WeatherDisplay:10.37,2013-04-16 10:42:00,
2013-04-16 06:47:00,54.3,50.5,30.17,NNE,22,0.0,0.0,87,0.00,CLR,,0.00,WeatherDisplay:10.37,2013-04-16 10:47:00,
2013-04-16 06:52:00,54.3,50.5,30.17,NNE,22,4.6,4.6,87,0.00,CLR,,0.00,WeatherDisplay:10.37,2013-04-16 10:52:00,
2013-04-16 06:57:00,54.3,50.5,30.18,NNE,22,0.0,0.0,87,0.00,CLR,,0.00,WeatherDisplay:10.37,2013-04-16 10:57:00,
2013-04-16 07:02:00,54.3,50.5,30.18,NNE,22,0.0,0.0,87,0.00,CLR,,0.00,WeatherDisplay:10.37,2013-04-16 11:02:00,
2013-04-16 07:07:00,54.3,50.5,30.18,NNE,22,0.0,0.0,87,0.00,CLR,,0.00,WeatherDisplay:10.37,2013-04-16 11:07:00,
2013-04-16 07:12:00,54.3,50.5,30.19,NNE,22,1.1,1.1,87,0.00,CLR,,0.00,WeatherDisplay:10.37,2013-04-16 11:12:00,
2013-04-16 07:17:00,54.3,50.5,30.19,NNE,22,0.0,0.0,87,0.00,CLR,,0.00,WeatherDisplay:10.37,2013-04-16 11:17:00,
2013-04-16 07:22:00,54.3,50.5,30.19,NNE,22,4.6,4.6,87,0.00,CLR,,0.00,WeatherDisplay:10.37,2013-04-16 11:22:00,
2013-04-16 07:27:00,54.5,50.7,30.20,NNE,22,3.5,3.5,87,0.00,CLR,,0.00,WeatherDisplay:10.37,2013-04-16 11:27:00,
2013-04-16 07:32:00,54.7,50.9,30.20,NNE,22,2.3,2.3,87,0.00,CLR,,0.00,WeatherDisplay:10.37,2013-04-16 11:32:00,
2013-04-16 07:37:00,54.9,51.1,30.20,NNE,22,1.1,1.1,87,0.00,CLR,,0.00,WeatherDisplay:10.37,2013-04-16 11:37:00,
2013-04-16 07:42:00,55.0,51.2,30.20,NNE,22,5.8,5.8,87,0.00,CLR,,0.00,WeatherDisplay:10.37,2013-04-16 11:42:00,
2013-04-16 07:47:00,55.2,51.7,30.21,NNE,22,0.0,0.0,88,0.00,CLR,,0.00,WeatherDisplay:10.37,2013-04-16 11:47:00,
2013-04-16 07:52:00,55.6,51.8,30.21,NNE,22,0.0,0.0,87,0.00,CLR,,0.00,WeatherDisplay:10.37,2013-04-16 11:52:00,
2013-04-16 07:57:00,55.8,51.9,30.21,NNE,22,3.5,3.5,87,0.00,CLR,,0.00,WeatherDisplay:10.37,2013-04-16 11:57:00,
2013-04-16 08:02:00,55.9,52.1,30.21,NNE,22,0.0,0.0,87,0.00,CLR,,0.00,WeatherDisplay:10.37,2013-04-16 12:02:00,
2013-04-16 08:07:00,56.1,52.3,30.21,NNE,22,0.0,0.0,87,0.00,CLR,,0.00,WeatherDisplay:10.37,2013-04-16 12:07:00,
2013-04-16 08:12:00,56.3,52.2,30.22,NNE,22,3.5,3.5,86,0.00,CLR,,0.00,WeatherDisplay:10.37,2013-04-16 12:12:00,
2013-04-16 08:17:00,56.5,52.3,30.22,NNE,22,0.0,0.0,86,0.00,CLR,,0.00,WeatherDisplay:10.37,2013-04-16 12:17:00,
2013-04-16 08:22:00,57.0,52.9,30.22,NNE,22,0.0,0.0,86,0.00,CLR,,0.00,WeatherDisplay:10.37,2013-04-16 12:22:00,
2013-04-16 08:27:00,57.7,53.3,30.23,NNE,22,3.5,0.0,85,0.00,CLR,,0.00,WeatherDisplay:10.37,2013-04-16 12:27:00,
2013-04-16 08:32:00,58.3,53.8,30.23,NNE,22,1.1,1.1,85,0.00,CLR,,0.00,WeatherDisplay:10.37,2013-04-16 12:32:00,
2013-04-16 08:37:00,58.8,53.7,30.23,NNE,22,0.0,0.0,83,0.00,CLR,,0.00,WeatherDisplay:10.37,2013-04-16 12:37:00,
2013-04-16 08:42:00,58.8,53.7,30.23,NNE,22,1.1,0.0,83,0.00,CLR,,0.00,WeatherDisplay:10.37,2013-04-16 12:42:00,
2013-04-16 08:47:00,59.5,54.0,30.23,NNE,22,0.0,0.0,82,0.00,CLR,,0.00,WeatherDisplay:10.37,2013-04-16 12:47:00,
2013-04-16 08:52:00,61.5,55.6,30.23,NNE,22,1.1,1.4,81,0.00,CLR,,0.00,WeatherDisplay:10.37,2013-04-16 12:52:00,
2013-04-16 08:57:00,63.0,56.3,30.23,NNE,22,0.0,0.0,79,0.00,CLR,,0.00,WeatherDisplay:10.37,2013-04-16 12:57:00,
2013-04-16 09:02:00,64.2,56.9,30.23,NNE,22,1.1,1.7,77,0.00,CLR,,0.00,WeatherDisplay:10.37,2013-04-16 13:02:00,
2013-04-16 09:07:00,66.0,57.5,30.23,NNE,22,0.0,0.0,74,0.00,CLR,,0.00,WeatherDisplay:10.37,2013-04-16 13:07:00,
2013-04-16 09:12:00,66.9,58.4,30.23,NNE,22,0.0,0.0,74,0.00,CLR,,0.00,WeatherDisplay:10.37,2013-04-16 13:12:00,
2013-04-16 09:17:00,68.7,58.1,30.24,NNE,22,4.6,4.6,69,0.00,CLR,,0.00,WeatherDisplay:10.37,2013-04-16 13:17:00,
2013-04-16 09:22:00,69.4,58.8,30.23,NNE,22,0.0,0.0,69,0.00,CLR,,0.00,WeatherDisplay:10.37,2013-04-16 13:22:00,
2013-04-16 09:27:00,69.6,58.2,30.23,NNE,22,5.8,0.0,67,0.00,CLR,,0.00,WeatherDisplay:10.37,2013-04-16 13:27:00,
2013-04-16 09:32:00,68.7,57.3,30.24,NNE,22,2.2,2.2,67,0.00,CLR,,0.00,WeatherDisplay:10.37,2013-04-16 13:32:00,
2013-04-16 09:37:00,67.8,56.9,30.24,NNE,22,3.5,3.5,68,0.00,CLR,,0.00,WeatherDisplay:10.37,2013-04-16 13:37:00,
2013-04-16 09:42:00,67.3,56.8,30.24,NNE,22,0.0,0.0,69,0.00,CLR,,0.00,WeatherDisplay:10.37,2013-04-16 13:42:00,
2013-04-16 09:47:00,67.8,57.3,30.24,NNE,22,2.3,2.3,69,0.00,CLR,,0.00,WeatherDisplay:10.37,2013-04-16 13:47:00,
2013-04-16 09:52:00,68.5,57.1,30.24,NNE,22,0.0,0.0,67,0.00,CLR,,0.00,WeatherDisplay:10.37,2013-04-16 13:52:00,
2013-04-16 09:57:00,70.0,58.1,30.24,NNE,22,0.0,0.0,66,0.00,CLR,,0.00,WeatherDisplay:10.37,2013-04-16 13:57:00,
2013-04-16 10:02:00,71.2,58.9,30.24,NNE,22,0.0,0.0,65,0.00,CLR,,0.00,WeatherDisplay:10.37,2013-04-16 14:02:00,
2013-04-16 10:07:00,72.0,58.7,30.24,NNE,22,3.5,3.8,63,0.00,CLR,,0.00,WeatherDisplay:10.37,2013-04-16 14:07:00,
2013-04-16 10:12:00,71.8,57.1,30.24,NNE,22,4.6,4.6,60,0.00,CLR,,0.00,WeatherDisplay:10.37,2013-04-16 14:12:00,
2013-04-16 10:17:00,71.6,56.5,30.24,NNE,22,1.1,1.1,59,0.00,CLR,,0.00,WeatherDisplay:10.37,2013-04-16 14:17:00,
2013-04-16 10:22:00,72.0,56.8,30.24,NNE,22,2.3,2.3,59,0.00,CLR,,0.00,WeatherDisplay:10.37,2013-04-16 14:22:00,
2013-04-16 10:27:00,72.1,56.5,30.24,NNE,22,0.0,0.0,58,0.00,CLR,,0.00,WeatherDisplay:10.37,2013-04-16 14:27:00,
2013-04-16 10:32:00,73.0,57.4,30.24,NNE,22,5.8,5.8,58,0.00,CLR,,0.00,WeatherDisplay:10.37,2013-04-16 14:32:00,
2013-04-16 10:37:00,73.6,56.9,30.24,NNE,22,4.6,4.6,56,0.00,CLR,,0.00,WeatherDisplay:10.37,2013-04-16 14:37:00,
2013-04-16 10:42:00,73.2,56.1,30.25,NNE,22,8.1,8.3,55,0.00,CLR,,0.00,WeatherDisplay:10.37,2013-04-16 14:42:00,
2013-04-16 10:47:00,72.5,54.9,30.25,NNE,22,6.9,7.3,54,0.00,CLR,,0.00,WeatherDisplay:10.37,2013-04-16 14:47:00,
2013-04-16 10:52:00,71.4,54.9,30.25,NNE,22,4.6,4.6,56,0.00,CLR,,0.00,WeatherDisplay:10.37,2013-04-16 14:52:00,
2013-04-16 10:57:00,71.4,54.9,30.25,NNE,22,10.4,10.8,56,0.00,CLR,,0.00,WeatherDisplay:10.37,2013-04-16 14:57:00,
2013-04-16 11:02:00,71.2,55.2,30.25,NNE,22,3.5,3.8,57,0.00,CLR,,0.00,WeatherDisplay:10.37,2013-04-16 15:02:00,
2013-04-16 11:07:00,71.2,55.2,30.25,NNE,22,3.5,3.5,57,0.00,CLR,,0.00,WeatherDisplay:10.37,2013-04-16 15:07:00,
2013-04-16 11:12:00,71.2,55.7,30.25,NNE,22,9.2,9.3,58,0.00,CLR,,0.00,WeatherDisplay:10.37,2013-04-16 15:12:00,
2013-04-16 11:17:00,71.4,54.9,30.25,NNE,22,9.2,9.5,56,0.00,CLR,,0.00,WeatherDisplay:10.37,2013-04-16 15:17:00,
2013-04-16 11:22:00,71.2,55.2,30.25,NNE,22,4.6,4.6,57,0.00,CLR,,0.00,WeatherDisplay:10.37,2013-04-16 15:22:00,
2013-04-16 11:27:00,71.4,55.4,30.25,NNE,22,5.8,5.8,57,0.00,CLR,,0.00,WeatherDisplay:10.37,2013-04-16 15:27:00,
2013-04-16 11:32:00,73.0,56.9,30.25,NNE,22,8.1,8.1,57,0.00,CLR,,0.00,WeatherDisplay:10.37,2013-04-16 15:32:00,
2013-04-16 11:37:00,74.5,57.3,30.25,NNE,22,8.1,8.1,55,0.00,CLR,,0.00,WeatherDisplay:10.37,2013-04-16 15:37:00,
2013-04-16 11:42:00,75.7,57.9,30.24,NNE,22,0.0,0.0,54,0.00,CLR,,0.00,WeatherDisplay:10.37,2013-04-16 15:42:00,
2013-04-16 11:48:00,77.9,58.9,30.24,NNE,22,4.6,4.8,52,0.00,CLR,,0.00,WeatherDisplay:10.37,2013-04-16 15:48:00,
2013-04-16 11:53:00,78.4,58.8,30.24,NNE,22,0.0,0.3,51,0.00,CLR,,0.00,WeatherDisplay:10.37,2013-04-16 15:53:00,
2013-04-16 11:58:00,77.7,58.1,30.24,NNE,22,4.6,4.6,51,0.00,CLR,,0.00,WeatherDisplay:10.37,2013-04-16 15:58:00,
2013-04-16 12:03:00,75.9,57.6,30.24,NNE,22,3.1,3.1,53,0.00,CLR,,0.00,WeatherDisplay:10.37,2013-04-16 16:03:00,
2013-04-16 12:08:00,75.4,56.5,30.24,NNE,22,2.3,0.0,52,0.00,CLR,,0.00,WeatherDisplay:10.37,2013-04-16 16:08:00,
2013-04-16 12:13:00,75.0,56.7,30.24,NNE,22,2.3,2.3,53,0.00,CLR,,0.00,WeatherDisplay:10.37,2013-04-16 16:13:00,
2013-04-16 12:18:00,75.0,57.2,30.24,NNE,22,1.1,1.7,54,0.00,CLR,,0.00,WeatherDisplay:10.37,2013-04-16 16:18:00,
2013-04-16 12:23:00,76.8,58.9,30.24,NNE,22,4.6,4.8,54,0.00,CLR,,0.00,WeatherDisplay:10.37,2013-04-16 16:23:00,
2013-04-16 12:28:00,77.2,58.7,30.23,NNE,22,2.3,2.3,53,0.00,CLR,,0.00,WeatherDisplay:10.37,2013-04-16 16:28:00,
2013-04-16 12:33:00,78.3,59.7,30.23,NNE,22,0.0,0.0,53,0.00,CLR,,0.00,WeatherDisplay:10.37,2013-04-16 16:33:00,
2013-04-16 12:38:00,79.3,60.2,30.23,NNE,22,5.8,5.8,52,0.00,CLR,,0.00,WeatherDisplay:10.37,2013-04-16 16:38:00,
2013-04-16 12:43:00,79.5,59.8,30.23,NNE,22,5.8,5.8,51,0.00,CLR,,0.00,WeatherDisplay:10.37,2013-04-16 16:43:00,
2013-04-16 12:48:00,79.9,59.6,30.23,NNE,22,9.2,9.2,50,0.00,CLR,,0.00,WeatherDisplay:10.37,2013-04-16 16:48:00,
2013-04-16 12:53:00,79.3,59.6,30.23,NNE,22,6.9,6.9,51,0.00,CLR,,0.00,WeatherDisplay:10.37,2013-04-16 16:53:00,
2013-04-16 12:58:00,78.8,58.6,30.23,NNE,22,6.9,6.9,50,0.00,CLR,,0.00,WeatherDisplay:10.37,2013-04-16 16:58:00,
2013-04-16 13:03:00,78.6,59.0,30.22,NNE,22,6.9,7.4,51,0.00,CLR,,0.00,WeatherDisplay:10.37,2013-04-16 17:03:00,
2013-04-16 13:08:00,77.7,58.7,30.22,NNE,22,5.8,5.8,52,0.00,CLR,,0.00,WeatherDisplay:10.37,2013-04-16 17:08:00,
2013-04-16 13:13:00,76.3,57.9,30.22,NNE,22,3.9,4.0,53,0.00,CLR,,0.00,WeatherDisplay:10.37,2013-04-16 17:13:00,
2013-04-16 13:18:00,76.1,58.8,30.22,NNE,22,0.0,0.0,55,0.00,CLR,,0.00,WeatherDisplay:10.37,2013-04-16 17:18:00,
2013-04-16 13:23:00,77.5,59.1,30.21,NNE,22,4.6,5.3,53,0.00,CLR,,0.00,WeatherDisplay:10.37,2013-04-16 17:23:00,
2013-04-16 13:28:00,77.2,58.7,30.21,NNE,22,0.0,0.2,53,0.00,CLR,,0.00,WeatherDisplay:10.37,2013-04-16 17:28:00,
2013-04-16 13:33:00,76.8,58.9,30.21,NNE,22,3.5,3.5,54,0.00,CLR,,0.00,WeatherDisplay:10.37,2013-04-16 17:33:00,
2013-04-16 13:38:00,76.6,58.7,30.21,NNE,22,4.6,4.6,54,0.00,CLR,,0.00,WeatherDisplay:10.37,2013-04-16 17:38:00,
2013-04-16 13:43:00,76.3,58.4,30.21,NNE,22,2.3,2.3,54,0.00,CLR,,0.00,WeatherDisplay:10.37,2013-04-16 17:43:00,
2013-04-16 13:48:00,76.8,59.4,30.21,NNE,22,3.5,3.5,55,0.00,CLR,,0.00,WeatherDisplay:10.37,2013-04-16 17:48:00,
2013-04-16 13:53:00,77.5,59.6,30.21,NNE,22,2.3,2.3,54,0.00,CLR,,0.00,WeatherDisplay:10.37,2013-04-16 17:53:00,
2013-04-16 13:58:00,80.4,60.6,30.21,NNE,22,6.9,6.9,51,0.00,CLR,,0.00,WeatherDisplay:10.37,2013-04-16 17:58:00,
2013-04-16 14:03:00,81.1,61.8,30.21,NNE,22,8.1,8.1,52,0.00,CLR,,0.00,WeatherDisplay:10.37,2013-04-16 18:03:00,
2013-04-16 14:08:00,82.9,61.8,30.21,NNE,22,0.0,0.0,49,0.00,CLR,,0.00,WeatherDisplay:10.37,2013-04-16 18:08:00,
2013-04-16 14:13:00,82.9,60.6,30.21,NNE,22,4.6,4.6,47,0.00,CLR,,0.00,WeatherDisplay:10.37,2013-04-16 18:13:00,
2013-04-16 14:18:00,81.7,60.1,30.21,NNE,22,9.2,9.2,48,0.00,CLR,,0.00,WeatherDisplay:10.37,2013-04-16 18:18:00,
2013-04-16 14:23:00,80.4,59.5,30.20,NNE,22,7.0,7.0,49,0.00,CLR,,0.00,WeatherDisplay:10.37,2013-04-16 18:23:00,
2013-04-16 14:28:00,80.8,60.4,30.20,NNE,22,4.6,5.1,50,0.00,CLR,,0.00,WeatherDisplay:10.37,2013-04-16 18:28:00,
2013-04-16 14:33:00,81.7,60.7,30.20,NNE,22,2.3,2.3,49,0.00,CLR,,0.00,WeatherDisplay:10.37,2013-04-16 18:33:00,
2013-04-16 14:38:00,81.5,59.9,30.20,NNE,22,0.0,0.0,48,0.00,CLR,,0.00,WeatherDisplay:10.37,2013-04-16 18:38:00,
2013-04-16 14:43:00,80.8,60.4,30.20,NNE,22,3.5,3.9,50,0.00,CLR,,0.00,WeatherDisplay:10.37,2013-04-16 18:43:00,
2013-04-16 14:48:00,81.3,60.3,30.19,NNE,22,6.9,6.9,49,0.00,CLR,,0.00,WeatherDisplay:10.37,2013-04-16 18:48:00,
2013-04-16 14:53:00,82.0,61.0,30.19,NNE,22,3.5,3.8,49,0.00,CLR,,0.00,WeatherDisplay:10.37,2013-04-16 18:53:00,
2013-04-16 14:58:00,81.5,59.9,30.19,NNE,22,0.0,0.0,48,0.00,CLR,,0.00,WeatherDisplay:10.37,2013-04-16 18:58:00,
2013-04-16 15:03:00,80.8,59.3,30.19,NNE,22,4.6,4.6,48,0.00,CLR,,0.00,WeatherDisplay:10.37,2013-04-16 19:03:00,
2013-04-16 15:08:00,81.0,60.0,30.19,NNE,22,0.0,0.0,49,0.00,CLR,,0.00,WeatherDisplay:10.37,2013-04-16 19:08:00,
2013-04-16 15:13:00,82.6,61.5,30.18,NNE,22,1.1,1.1,49,0.00,CLR,,0.00,WeatherDisplay:10.37,2013-04-16 19:13:00,
2013-04-16 15:18:00,82.2,60.0,30.18,NNE,22,0.0,0.0,47,0.00,CLR,,0.00,WeatherDisplay:10.37,2013-04-16 19:18:00,
2013-04-16 15:23:00,82.2,60.0,30.18,NNE,22,0.0,0.5,47,0.00,CLR,,0.00,WeatherDisplay:10.37,2013-04-16 19:23:00,
2013-04-16 15:28:00,82.4,60.1,30.17,NNE,22,0.0,4.1,47,0.00,CLR,,0.00,WeatherDisplay:10.37,2013-04-16 19:28:00,
2013-04-16 15:33:00,85.3,60.9,30.17,NNE,22,0.0,0.5,44,0.00,CLR,,0.00,WeatherDisplay:10.37,2013-04-16 19:33:00,
2013-04-16 15:38:00,86.4,60.6,30.17,NNE,22,0.0,0.0,42,0.00,CLR,,0.00,WeatherDisplay:10.37,2013-04-16 19:38:00,
2013-04-16 15:43:00,88.3,63.0,30.16,NNE,22,3.5,3.5,43,0.00,CLR,,0.00,WeatherDisplay:10.37,2013-04-16 19:43:00,
2013-04-16 15:48:00,88.9,61.4,30.16,NNE,22,3.5,3.5,40,0.00,CLR,,0.00,WeatherDisplay:10.37,2013-04-16 19:48:00,
2013-04-16 15:53:00,88.2,60.8,30.16,NNE,22,6.9,6.9,40,0.00,CLR,,0.00,WeatherDisplay:10.37,2013-04-16 19:53:00,
2013-04-16 15:58:00,88.5,61.1,30.15,NNE,22,3.5,3.5,40,0.00,CLR,,0.00,WeatherDisplay:10.37,2013-04-16 19:58:00,
2013-04-16 16:03:00,88.5,59.7,30.15,NNE,22,0.0,0.0,38,0.00,CLR,,0.00,WeatherDisplay:10.37,2013-04-16 20:03:00,
2013-04-16 16:08:00,88.3,61.0,30.15,NNE,22,1.1,1.1,40,0.00,CLR,,0.00,WeatherDisplay:10.37,2013-04-16 20:08:00,
2013-04-16 16:13:00,88.9,61.4,30.15,NNE,22,2.7,0.0,40,0.00,CLR,,0.00,WeatherDisplay:10.37,2013-04-16 20:13:00,
2013-04-16 16:18:00,88.0,58.4,30.15,NNE,22,0.0,0.0,37,0.00,CLR,,0.00,WeatherDisplay:10.37,2013-04-16 20:18:00,
2013-04-16 16:23:00,87.6,58.9,30.15,NNE,22,0.0,0.0,38,0.00,CLR,,0.00,WeatherDisplay:10.37,2013-04-16 20:23:00,
2013-04-16 16:28:00,88.3,59.5,30.14,NNE,22,1.7,0.0,38,0.00,CLR,,0.00,WeatherDisplay:10.37,2013-04-16 20:28:00,
2013-04-16 16:33:00,89.2,61.0,30.15,NNE,22,0.0,0.4,39,0.00,CLR,,0.00,WeatherDisplay:10.37,2013-04-16 20:33:00,
2013-04-16 16:38:00,89.8,60.0,30.14,NNE,22,6.9,6.9,37,0.00,CLR,,0.00,WeatherDisplay:10.37,2013-04-16 20:38:00,
2013-04-16 16:43:00,88.9,59.2,30.14,NNE,22,6.9,6.9,37,0.00,CLR,,0.00,WeatherDisplay:10.37,2013-04-16 20:43:00,
2013-04-16 16:48:00,86.7,57.3,30.14,NNE,22,5.8,5.8,37,0.00,CLR,,0.00,WeatherDisplay:10.37,2013-04-16 20:48:00,
2013-04-16 16:53:00,84.6,56.9,30.14,NNE,22,9.2,9.2,39,0.00,CLR,,0.00,WeatherDisplay:10.37,2013-04-16 20:53:00,
2013-04-16 16:58:00,84.9,56.5,30.14,NNE,22,5.8,6.5,38,0.00,CLR,,0.00,WeatherDisplay:10.37,2013-04-16 20:58:00,
2013-04-16 17:03:00,85.3,56.8,30.14,NNE,22,5.8,5.8,38,0.00,CLR,,0.00,WeatherDisplay:10.37,2013-04-16 21:03:00,
2013-04-16 17:08:00,85.6,57.1,30.14,NNE,22,6.8,6.8,38,0.00,CLR,,0.00,WeatherDisplay:10.37,2013-04-16 21:08:00,
2013-04-16 17:13:00,85.3,56.8,30.14,NNE,22,1.1,1.1,38,0.00,CLR,,0.00,WeatherDisplay:10.37,2013-04-16 21:13:00,
2013-04-16 17:18:00,85.1,57.4,30.14,NNE,22,2.3,4.9,39,0.00,CLR,,0.00,WeatherDisplay:10.37,2013-04-16 21:18:00,
2013-04-16 17:23:00,84.6,56.9,30.14,NNE,22,2.3,2.3,39,0.00,CLR,,0.00,WeatherDisplay:10.37,2013-04-16 21:23:00,
2013-04-16 17:28:00,84.7,57.0,30.14,NNE,22,4.6,4.6,39,0.00,CLR,,0.00,WeatherDisplay:10.37,2013-04-16 21:28:00,
2013-04-16 17:33:00,84.7,57.0,30.14,NNE,22,1.1,1.1,39,0.00,CLR,,0.00,WeatherDisplay:10.37,2013-04-16 21:33:00,
2013-04-16 17:38:00,84.7,57.0,30.14,NNE,22,6.9,6.9,39,0.00,CLR,,0.00,WeatherDisplay:10.37,2013-04-16 21:38:00,
2013-04-16 17:43:00,83.1,55.6,30.14,NNE,22,1.1,1.1,39,0.00,CLR,,0.00,WeatherDisplay:10.37,2013-04-16 21:43:00,
2013-04-16 17:48:00,81.7,54.3,30.13,NNE,22,8.1,8.1,39,0.00,CLR,,0.00,WeatherDisplay:10.37,2013-04-16 21:48:00,
2013-04-16 17:53:00,81.7,55.7,30.14,NNE,22,0.0,0.0,41,0.00,CLR,,0.00,WeatherDisplay:10.37,2013-04-16 21:53:00,
2013-04-16 17:58:00,82.2,55.5,30.14,NNE,22,5.8,5.8,40,0.00,CLR,,0.00,WeatherDisplay:10.37,2013-04-16 21:58:00,
2013-04-16 18:03:00,81.7,55.0,30.14,NNE,22,8.1,8.2,40,0.00,CLR,,0.00,WeatherDisplay:10.37,2013-04-16 22:03:00,
2013-04-16 18:08:00,81.5,54.8,30.14,NNE,22,8.1,8.1,40,0.00,CLR,,0.00,WeatherDisplay:10.37,2013-04-16 22:08:00,
2013-04-16 18:13:00,79.9,53.4,30.14,NNE,22,1.1,1.5,40,0.00,CLR,,0.00,WeatherDisplay:10.37,2013-04-16 22:13:00,
2013-04-16 18:18:00,79.3,54.3,30.14,NNE,22,0.0,0.0,42,0.00,CLR,,0.00,WeatherDisplay:10.37,2013-04-16 22:18:00,
2013-04-16 18:23:00,78.6,54.2,30.14,NNE,22,3.9,3.9,43,0.00,CLR,,0.00,WeatherDisplay:10.37,2013-04-16 22:23:00,
2013-04-16 18:28:00,78.6,54.2,30.13,NNE,22,2.3,2.3,43,0.00,CLR,,0.00,WeatherDisplay:10.37,2013-04-16 22:28:00,
2013-04-16 18:33:00,79.0,54.6,30.13,NNE,22,1.1,1.1,43,0.00,CLR,,0.00,WeatherDisplay:10.37,2013-04-16 22:33:00,
2013-04-16 18:38:00,78.6,54.2,30.13,NNE,22,0.0,0.2,43,0.00,CLR,,0.00,WeatherDisplay:10.37,2013-04-16 22:38:00,
2013-04-16 18:43:00,78.4,54.7,30.14,NNE,22,4.1,4.1,44,0.00,CLR,,0.00,WeatherDisplay:10.37,2013-04-16 22:43:00,
2013-04-16 18:48:00,77.9,54.8,30.14,NNE,22,1.4,1.5,45,0.00,CLR,,0.00,WeatherDisplay:10.37,2013-04-16 22:48:00,
2013-04-16 18:53:00,77.9,54.8,30.14,NNE,22,1.1,1.5,45,0.00,CLR,,0.00,WeatherDisplay:10.37,2013-04-16 22:53:00,
2013-04-16 18:58:00,78.3,55.2,30.13,NNE,22,1.1,1.1,45,0.00,CLR,,0.00,WeatherDisplay:10.37,2013-04-16 22:58:00,
2013-04-16 19:03:00,78.4,54.7,30.13,NNE,22,3.5,3.5,44,0.00,CLR,,0.00,WeatherDisplay:10.37,2013-04-16 23:03:00,
2013-04-16 19:08:00,78.1,54.4,30.13,NNE,22,1.1,1.1,44,0.00,CLR,,0.00,WeatherDisplay:10.37,2013-04-16 23:08:00,
2013-04-16 19:13:00,77.7,54.7,30.13,NNE,22,0.0,0.0,45,0.00,CLR,,0.00,WeatherDisplay:10.37,2013-04-16 23:13:00,
2013-04-16 19:18:00,77.5,54.5,30.13,NNE,22,0.0,0.0,45,0.00,CLR,,0.00,WeatherDisplay:10.37,2013-04-16 23:18:00,
2013-04-16 19:23:00,77.5,54.5,30.14,NNE,22,0.0,0.0,45,0.00,CLR,,0.00,WeatherDisplay:10.37,2013-04-16 23:23:00,
2013-04-16 19:28:00,77.0,54.6,30.13,NNE,22,0.0,0.0,46,0.00,CLR,,0.00,WeatherDisplay:10.37,2013-04-16 23:28:00,
2013-04-16 19:33:00,76.3,54.0,30.14,NNE,22,0.0,0.0,46,0.00,CLR,,0.00,WeatherDisplay:10.37,2013-04-16 23:33:00,
2013-04-16 19:38:00,75.7,53.5,30.14,NNE,22,0.0,0.0,46,0.00,CLR,,0.00,WeatherDisplay:10.37,2013-04-16 23:38:00,
2013-04-16 19:43:00,75.0,53.4,30.14,NNE,22,0.0,0.0,47,0.00,CLR,,0.00,WeatherDisplay:10.37,2013-04-16 23:43:00,
2013-04-16 19:48:00,74.8,53.8,30.14,NNE,22,0.0,0.0,48,0.00,CLR,,0.00,WeatherDisplay:10.37,2013-04-16 23:48:00,
2013-04-16 19:53:00,73.9,53.6,30.14,NNE,22,0.0,0.0,49,0.00,CLR,,0.00,WeatherDisplay:10.37,2013-04-16 23:53:00,
2013-04-16 19:58:00,73.2,53.5,30.14,NNE,22,1.1,1.1,50,0.00,CLR,,0.00,WeatherDisplay:10.37,2013-04-16 23:58:00,
2013-04-16 20:03:00,73.0,53.8,30.14,NNE,22,0.0,0.0,51,0.00,CLR,,0.00,WeatherDisplay:10.37,2013-04-17 00:03:00,
2013-04-16 20:08:00,72.3,54.2,30.15,NNE,22,0.0,0.0,53,0.00,CLR,,0.00,WeatherDisplay:10.37,2013-04-17 00:08:00,
2013-04-16 20:13:00,71.8,53.7,30.15,NNE,22,0.0,0.0,53,0.00,CLR,,0.00,WeatherDisplay:10.37,2013-04-17 00:13:00,
2013-04-16 20:18:00,71.2,53.7,30.15,NNE,22,0.0,0.0,54,0.00,CLR,,0.00,WeatherDisplay:10.37,2013-04-17 00:18:00,
2013-04-16 20:23:00,70.9,53.9,30.15,NNE,22,0.0,0.0,55,0.00,CLR,,0.00,WeatherDisplay:10.37,2013-04-17 00:23:00,
2013-04-16 20:28:00,70.7,54.2,30.15,NNE,22,0.0,0.0,56,0.00,CLR,,0.00,WeatherDisplay:10.37,2013-04-17 00:28:00,
2013-04-16 20:33:00,70.5,54.5,30.15,NNE,22,0.0,0.0,57,0.00,CLR,,0.00,WeatherDisplay:10.37,2013-04-17 00:33:00,
2013-04-16 20:38:00,70.0,54.0,30.15,NNE,22,0.0,0.0,57,0.00,CLR,,0.00,WeatherDisplay:10.37,2013-04-17 00:38:00,
2013-04-16 20:43:00,69.6,54.2,30.15,NNE,22,0.0,0.0,58,0.00,CLR,,0.00,WeatherDisplay:10.37,2013-04-17 00:43:00,
2013-04-16 20:48:00,69.1,54.1,30.15,NNE,22,0.0,0.0,59,0.00,CLR,,0.00,WeatherDisplay:10.37,2013-04-17 00:48:00,
2013-04-16 20:54:00,68.7,54.3,30.15,NNE,22,0.0,0.0,60,0.00,CLR,,0.00,WeatherDisplay:10.37,2013-04-17 00:54:00,
2013-04-16 20:59:00,68.5,54.1,30.16,NNE,22,0.0,0.0,60,0.00,CLR,,0.00,WeatherDisplay:10.37,2013-04-17 00:59:00,
2013-04-16 21:04:00,68.4,54.4,30.15,NNE,22,0.0,0.0,61,0.00,CLR,,0.00,WeatherDisplay:10.37,2013-04-17 01:04:00,
2013-04-16 21:09:00,68.2,54.2,30.15,NNE,22,0.0,0.0,61,0.00,CLR,,0.00,WeatherDisplay:10.37,2013-04-17 01:09:00,
2013-04-16 21:14:00,67.8,53.9,30.16,NNE,22,0.0,0.0,61,0.00,CLR,,0.00,WeatherDisplay:10.37,2013-04-17 01:14:00,
2013-04-16 21:19:00,67.6,53.7,30.16,NNE,22,0.0,0.0,61,0.00,CLR,,0.00,WeatherDisplay:10.37,2013-04-17 01:19:00,
2013-04-16 21:24:00,67.3,53.8,30.17,NNE,22,0.0,0.0,62,0.00,CLR,,0.00,WeatherDisplay:10.37,2013-04-17 01:24:00,
2013-04-16 21:29:00,66.9,53.5,30.17,NNE,22,0.0,0.0,62,0.00,CLR,,0.00,WeatherDisplay:10.37,2013-04-17 01:29:00,
2013-04-16 21:34:00,66.4,53.4,30.17,NNE,22,0.0,0.0,63,0.00,CLR,,0.00,WeatherDisplay:10.37,2013-04-17 01:34:00,
2013-04-16 21:39:00,66.2,53.7,30.18,NNE,22,0.0,0.0,64,0.00,CLR,,0.00,WeatherDisplay:10.37,2013-04-17 01:39:00,
2013-04-16 21:44:00,66.0,53.5,30.18,NNE,22,0.0,0.0,64,0.00,CLR,,0.00,WeatherDisplay:10.37,2013-04-17 01:44:00,
2013-04-16 21:49:00,65.5,53.4,30.18,NNE,22,0.0,0.0,65,0.00,CLR,,0.00,WeatherDisplay:10.37,2013-04-17 01:49:00,
2013-04-16 21:54:00,65.1,53.1,30.18,NNE,22,0.0,0.0,65,0.00,CLR,,0.00,WeatherDisplay:10.37,2013-04-17 01:54:00,
2013-04-16 21:59:00,64.9,53.3,30.18,NNE,22,0.0,0.0,66,0.00,CLR,,0.00,WeatherDisplay:10.37,2013-04-17 01:59:00,
2013-04-16 22:04:00,64.6,53.0,30.18,NNE,22,0.0,0.0,66,0.00,CLR,,0.00,WeatherDisplay:10.37,2013-04-17 02:04:00,
2013-04-16 22:09:00,64.2,53.0,30.18,NNE,22,0.0,0.0,67,0.00,CLR,,0.00,WeatherDisplay:10.37,2013-04-17 02:09:00,
2013-04-16 22:14:00,63.9,53.1,30.18,NNE,22,0.0,0.0,68,0.00,CLR,,0.00,WeatherDisplay:10.37,2013-04-17 02:14:00,
2013-04-16 22:19:00,63.3,53.0,30.18,NNE,22,0.0,0.0,69,0.00,CLR,,0.00,WeatherDisplay:10.37,2013-04-17 02:19:00,
2013-04-16 22:24:00,63.1,52.8,30.18,NNE,22,0.0,0.0,69,0.00,CLR,,0.00,WeatherDisplay:10.37,2013-04-17 02:24:00,
2013-04-16 22:29:00,63.0,53.0,30.18,NNE,22,0.0,0.0,70,0.00,CLR,,0.00,WeatherDisplay:10.37,2013-04-17 02:29:00,
2013-04-16 22:34:00,62.8,53.2,30.18,NNE,22,0.0,0.0,71,0.00,CLR,,0.00,WeatherDisplay:10.37,2013-04-17 02:34:00,
2013-04-16 22:39:00,62.8,53.2,30.18,NNE,22,0.0,0.0,71,0.00,CLR,,0.00,WeatherDisplay:10.37,2013-04-17 02:39:00,
2013-04-16 22:44:00,62.8,53.2,30.19,NNE,22,0.0,0.0,71,0.00,CLR,,0.00,WeatherDisplay:10.37,2013-04-17 02:44:00,
2013-04-16 22:49:00,62.4,53.3,30.19,NNE,22,0.0,0.0,72,0.00,CLR,,0.00,WeatherDisplay:10.37,2013-04-17 02:49:00,
2013-04-16 22:54:00,62.2,53.1,30.19,NNE,22,0.0,0.0,72,0.00,CLR,,0.00,WeatherDisplay:10.37,2013-04-17 02:54:00,
2013-04-16 22:59:00,62.1,52.9,30.18,NNE,22,0.0,0.0,72,0.00,CLR,,0.00,WeatherDisplay:10.37,2013-04-17 02:59:00,
2013-04-16 23:04:00,61.9,53.1,30.19,NNE,22,0.0,0.0,73,0.00,CLR,,0.00,WeatherDisplay:10.37,2013-04-17 03:04:00,
2013-04-16 23:09:00,61.7,53.3,30.21,NNE,22,2.3,2.7,74,0.00,CLR,,0.00,WeatherDisplay:10.37,2013-04-17 03:09:00,
2013-04-16 23:14:00,61.7,53.3,30.21,NNE,22,3.5,3.5,74,0.00,CLR,,0.00,WeatherDisplay:10.37,2013-04-17 03:14:00,
2013-04-16 23:19:00,62.4,54.0,30.21,NNE,22,0.0,0.0,74,0.00,CLR,,0.00,WeatherDisplay:10.37,2013-04-17 03:19:00,
2013-04-16 23:24:00,62.8,54.4,30.21,NNE,22,8.9,8.9,74,0.00,CLR,,0.00,WeatherDisplay:10.37,2013-04-17 03:24:00,
2013-04-16 23:29:00,63.3,54.9,30.21,NNE,22,3.5,0.0,74,0.00,CLR,,0.00,WeatherDisplay:10.37,2013-04-17 03:29:00,
2013-04-16 23:34:00,63.5,54.7,30.22,NNE,22,1.1,1.8,73,0.00,CLR,,0.00,WeatherDisplay:10.37,2013-04-17 03:34:00,
2013-04-16 23:39:00,63.7,54.9,30.22,NNE,22,5.8,5.9,73,0.00,CLR,,0.00,WeatherDisplay:10.37,2013-04-17 03:39:00,
2013-04-16 23:44:00,63.7,54.9,30.22,NNE,22,8.1,8.1,73,0.00,CLR,,0.00,WeatherDisplay:10.37,2013-04-17 03:44:00,
2013-04-16 23:49:00,63.5,55.1,30.23,NNE,22,4.8,4.8,74,0.00,CLR,,0.00,WeatherDisplay:10.37,2013-04-17 03:49:00,
2013-04-16 23:54:00,63.3,54.9,30.24,NNE,22,2.3,2.3,74,0.00,CLR,,0.00,WeatherDisplay:10.37,2013-04-17 03:54:00,
2013-04-16 23:59:00,63.3,54.9,30.25,NNE,22,0.0,0.0,74,0.00,CLR,,0.00,WeatherDisplay:10.37,2013-04-17 03:59:00,